CAPE
1199 1182 1132 1060 1051 1018 962 914 861 775 755 784 1004 1326 1496 1619 1672 1835 1968 1972 1976 2068 2227 2361 2431 2448 2495 2546 2590 2686 2796 2840 2804 2762 2754 2621 2257 1864 1524 1268 352 0
1230 1181 1159 1113 1055 1034 991 900 816 790 763 718 788 1019 1304 1448 1544 1632 1866 1963 1985 2046 2164 2342 2482 2517 2529 2550 2598 2659 2720 2743 2732 2745 2799 2710 2409 2200 1956 1568 929 6
1261 1207 1150 1126 1068 1046 1052 975 893 844 884 776 736 864 1068 1324 1444 1491 1656 1849 1936 2004 2104 2267 2446 2569 2577 2585 2621 2684 2780 2799 2701 2744 2790 2701 2468 2428 2435 2169 1412 769
1280 1227 1179 1147 1082 1019 1054 1092 1028 970 960 1004 910 965 1092 1298 1420 1493 1559 1997 1815 1896 2020 2171 2332 2499 2600 2625 2644 2696 2763 2812 2802 2789 2768 2713 2576 2528 2582 2421 1649 927
1287 1252 1186 1138 1097 999 961 1123 1149 1062 1000 1101 1120 1078 1230 1348 1462 1504 1548 1674 1785 1843 1946 2090 2235 2349 2497 2584 2623 2636 2688 2758 2822 2852 2727 2598 2562 2538 2586 2530 2051 1392
1282 1256 1210 1144 1095 1037 944 980 1223 1187 1056 1036 1215 1226 1303 1394 1480 1520 1557 1587 1730 1826 1904 2019 2140 2250 2344 2457 2507 2518 2525 2588 2719 2843 2811 2603 2493 2504 2539 2525 2348 2043
1256 1258 1239 1186 1112 1053 1010 928 1035 1285 1268 1127 1177 1352 1402 1471 1508 1548 1572 1579 1631 1754 1841 1940 2058 2165 2253 2337 2394 2410 2426 2475 2567 2699 2794 2729 2494 2424 2434 2461 2397 2206
1248 1239 1242 1220 1171 1102 1098 1072 995 1115 1380 1390 1296 1366 1514 1581 1590 1600 1604 1604 1600 1652 1761 1850 1978 2107 2221 2292 2341 2353 2379 2402 2480 2582 2630 2673 2559 2376 2356 2360 2343 2220
1228 1227 1231 1217 1182 1133 1100 1143 1143 1114 1234 1480 1535 1459 1518 1654 1718 1726 1724 1698 1645 1608 1665 1773 1900 2032 2184 2307 2335 2350 2370 2382 2429 2490 2528 2536 2520 2403 2287 2290 2270 2193
1248 1229 1210 1193 1188 1170 1148 1152 1197 1225 1265 1429 1587 1628 1602 1642 1743 1816 1871 1860 1795 1709 1653 1724 1845 1962 2094 2248 2338 2354 2363 2377 2397 2438 2480 2508 2511 2417 2259 2237 2250 2218
1269 1242 1210 1196 1190 1198 1194 1173 1196 1231 1269 1406 1560 1678 1713 1708 1737 1809 1883 1947 1952 1892 1813 1763 1818 1947 2055 2150 2264 2339 2358 2368 2392 2418 2446 2458 2473 2414 2285 2164 2165 2167
1330 1299 1277 1254 1237 1239 1237 1222 1222 1231 1247 1330 1463 1645 1767 1782 1792 1846 1886 1933 1974 1986 1934 1870 1843 1910 2045 2138 2216 2307 2360 2368 2377 2382 2378 2392 2388 2374 2310 2208 2124 2075
1446 1404 1356 1334 1322 1310 1296 1287 1271 1252 1248 1274 1345 1502 1674 1806 1844 1862 1923 1942 1945 1968 1994 1986 1955 1942 2004 2114 2209 2277 2343 2383 2374 2360 2358 2340 2325 2312 2267 2232 2176 2115
1610 1544 1488 1450 1412 1396 1375 1356 1326 1298 1287 1279 1279 1339 1462 1681 1858 1898 1922 1967 1986 1956 1941 1957 2005 2041 2055 2080 2146 2225 2296 2362 2379 2362 2338 2322 2307 2286 2268 2236 2214 2178
1763 1747 1693 1625 1572 1517 1468 1440 1412 1379 1346 1333 1321 1313 1314 1413 1658 1895 1972 1983 2000 2012 2003 1952 1914 1953 2039 2093 2119 2172 2225 2291 2351 2378 2367 2350 2332 2324 2324 2328 2308 2263
1905 1903 1878 1836 1774 1721 1675 1612 1512 1475 1430 1399 1382 1363 1348 1333 1356 1560 1855 1995 2017 2016 2023 2050 2041 1984 1952 2023 2092 2140 2195 2236 2288 2352 2407 2406 2384 2360 2358 2368 2376 2368
2084 2059 2037 2014 1982 1924 1882 1834 1740 1616 1542 1483 1442 1425 1401 1380 1348 1350 1466 1733 1946 2005 2002 1984 2056 2113 2103 2070 2104 2177 2193 2236 2270 2332 2408 2476 2480 2466 2428 2390 2382 2397
2336 2272 2239 2206 2168 2136 2074 2027 1983 1890 1730 1595 1528 1497 1471 1440 1410 1383 1357 1401 1577 1824 1971 1971 1940 1980 2104 2188 2217 2218 2240 2273 2299 2325 2376 2461 2534 2565 2544 2488 2419 2376
2550 2510 2466 2420 2374 2318 2268 2238 2241 2186 2078 1887 1674 1591 1552 1539 1510 1455 1437 1399 1405 1494 1674 1884 1962 1941 1962 2049 2181 2246 2274 2294 2321 2352 2365 2397 2463 2541 2583 2570 2540 2487
2682 2654 2620 2588 2553 2514 2475 2458 2478 2444 2374 2262 2088 1856 1662 1622 1596 1577 1547 1521 1482 1455 1478 1595 1776 1898 1980 2000 2003 2087 2192 2236 2257 2285 2344 2370 2392 2435 2484 2536 2562 2547
2790 2764 2742 2720 2697 2682 2657 2676 2666 2617 2572 2557 2484 2364 2168 1922 1684 1666 1647 1614 1571 1532 1501 1514 1596 1738 1901 1983 2000 2016 2058 2177 2235 2215 2225 2296 2356 2392 2416 2446 2478 2492
2955 2915 2867 2850 2845 2847 2862 2863 2823 2829 2897 2926 2892 2799 2676 2484 2257 1987 1726 1674 1675 1655 1601 1565 1561 1640 1806 1930 2014 2042 2037 2043 2154 2210 2224 2231 2274 2333 2369 2395 2428 2460
3183 3111 3074 3052 3050 3050 3042 3012 2996 3057 3148 3193 3203 3156 3044 2878 2652 2414 2125 1798 1717 1738 1713 1685 1664 1676 1751 1906 2044 2108 2126 2135 2126 2119 2161 2217 2268 2322 2362 2390 2421 2462
3428 3366 3326 3282 3254 3238 3189 3169 3172 3236 3320 3375 3408 3348 3245 3114 2976 2804 2563 2258 1910 1709 1755 1768 1766 1747 1768 1851 1994 2127 2209 2268 2289 2270 2255 2238 2270 2319 2372 2424 2467 2494
3620 3601 3540 3497 3456 3409 3351 3344 3360 3412 3464 3494 3507 3490 3476 3389 3222 3031 2824 2591 2332 2052 1740 1779 1785 1790 1813 1834 1875 2006 2138 2254 2304 2318 2300 2296 2320 2330 2338 2381 2450 2502
3759 3767 3724 3676 3628 3569 3532 3520 3528 3558 3595 3589 3572 3556 3559 3521 3432 3277 3094 2894 2702 2543 2369 2147 1878 1855 1880 1899 1905 1929 2021 2144 2239 2258 2276 2315 2343 2367 2378 2405 2444 2506
Wind_Speed
3 5 5 6 7 8 8 9 9 9 8 6 4 4 4 4 3 6 7 7 8 9 9 10 10 10 10 9 9 9 10 12 12 11 11 11 10 10 10 10 8 nan
3 5 7 8 10 11 11 10 9 8 7 6 5 3 3 1 2 4 5 6 6 8 8 9 10 11 12 12 12 12 13 14 16 14 15 16 15 12 12 11 11 nan
5 7 7 7 8 8 9 10 9 9 7 6 6 5 3 2 1 1 3 4 5 6 6 7 8 10 11 11 12 13 14 15 17 16 17 19 18 18 16 14 11 11
6 6 7 8 9 10 11 12 10 9 9 8 6 5 4 3 2 1 2 3 3 4 4 4 6 7 9 9 10 11 12 13 14 14 15 16 17 19 19 18 16 13
7 8 10 10 11 12 12 11 9 8 8 7 8 8 6 5 4 2 1 1 2 2 2 3 4 5 7 8 9 10 10 11 12 13 14 15 15 16 17 18 18 19
10 11 11 11 11 11 10 9 9 9 9 9 7 7 6 5 4 3 1 1 1 2 3 3 4 5 7 7 8 9 10 11 12 13 14 15 15 14 14 16 18 19
9 11 10 11 11 10 9 10 11 11 10 9 11 8 7 5 4 3 2 0 1 3 4 5 6 7 8 8 9 9 10 11 12 13 14 14 14 14 14 15 17 18
10 12 12 12 10 10 10 11 11 11 10 11 9 9 8 6 4 4 3 2 2 3 4 5 7 8 10 11 10 10 10 11 12 13 13 13 13 14 15 14 15 16
11 12 11 9 8 10 10 11 11 11 11 10 10 11 10 7 6 4 4 4 4 4 5 6 7 8 10 11 12 12 12 11 12 12 13 12 13 14 15 14 14 15
10 11 9 8 8 10 10 10 11 10 11 11 11 11 9 9 8 6 6 5 4 4 5 6 7 8 9 10 11 12 12 12 12 12 11 11 11 12 12 13 14 14
10 10 9 8 9 11 9 9 8 9 10 10 10 9 9 9 9 8 6 5 4 3 3 4 6 8 9 9 10 11 11 12 11 11 11 10 9 9 10 11 12 13
10 10 9 8 8 9 8 7 7 7 8 9 8 7 7 7 6 7 5 4 3 2 2 3 4 6 7 9 10 10 10 10 9 10 9 9 8 8 8 9 10 11
9 9 10 10 10 10 10 9 7 7 6 6 7 6 6 5 5 5 5 5 4 4 3 3 5 6 6 7 9 10 10 9 8 8 8 8 7 8 8 9 9 9
10 11 11 11 13 12 12 10 9 8 8 8 8 6 5 5 5 6 6 7 6 5 4 5 6 6 6 7 8 9 9 8 7 6 6 7 6 7 7 8 8 9
12 13 14 13 13 12 10 9 9 9 9 9 8 7 8 6 7 7 7 6 5 5 5 6 6 6 7 7 8 8 8 6 5 4 4 5 5 5 6 6 6 7
12 13 13 11 9 7 7 8 9 9 9 8 8 7 8 8 8 7 6 5 4 4 5 6 5 5 6 11 10 7 6 4 3 1 1 3 3 4 4 4 5 5
12 11 11 9 8 8 8 9 9 10 10 9 8 8 8 8 8 6 4 5 5 5 4 4 4 4 8 9 9 10 5 2 1 1 3 3 2 1 1 3 4 5
10 10 9 7 8 7 8 9 10 10 9 9 9 8 9 9 6 5 5 6 7 5 3 3 3 4 7 8 8 8 6 2 1 2 3 2 2 2 3 3 5 5
7 6 5 5 5 5 7 8 8 8 8 9 9 10 11 8 6 6 6 7 6 5 3 3 3 4 6 6 6 6 7 5 3 3 3 3 3 4 5 5 6 6
5 4 3 3 3 4 5 5 5 4 6 8 10 11 9 7 8 6 6 7 7 7 5 5 3 2 6 5 5 6 6 3 4 5 4 5 5 5 5 6 8 7
5 4 3 2 3 4 5 4 4 4 6 7 9 9 9 9 8 8 7 8 8 8 7 4 4 3 5 5 5 5 4 3 3 5 6 6 6 5 6 6 6 6
5 5 4 4 4 5 6 5 6 6 7 8 9 9 11 12 11 10 8 7 8 9 7 4 4 5 6 5 5 4 6 5 4 4 5 7 7 5 4 4 3 4
8 6 6 5 6 6 6 7 8 7 7 10 9 9 11 11 11 12 11 10 10 9 6 5 7 7 7 6 6 7 10 8 7 6 5 6 7 5 3 2 1 4
9 9 8 7 8 8 7 7 8 8 8 10 10 10 11 11 14 15 14 12 10 8 7 7 8 9 9 8 8 11 10 9 9 8 5 5 5 4 2 1 2 7
12 11 10 9 9 9 8 8 9 10 10 11 10 10 12 15 16 16 16 15 12 9 7 7 9 10 11 9 10 12 11 12 12 10 6 4 4 4 4 3 2 5
13 12 12 12 11 11 11 10 10 11 11 12 11 10 12 15 17 16 15 15 15 13 13 11 10 11 12 10 13 14 13 13 14 10 6 5 7 6 6 5 5 7
Wind_Direction
209 200 205 199 179 169 159 153 154 147 146 152 136 106 67 54 6 23 38 41 41 38 41 46 49 52 54 53 52 43 37 42 42 32 27 24 26 18 17 16 13 nan
205 205 206 203 191 181 173 171 164 156 151 150 134 129 129 212 349 357 20 33 37 43 44 48 51 55 56 54 55 53 51 48 50 43 37 34 34 27 28 19 14 nan
209 205 210 210 199 187 181 184 179 170 167 149 154 171 183 193 254 319 358 14 31 44 45 45 45 48 49 50 45 48 48 45 47 43 40 39 35 32 34 28 22 12
213 210 209 204 202 195 192 193 188 184 181 179 166 171 182 183 195 280 309 356 18 36 43 34 31 30 34 34 28 34 36 35 34 28 33 36 34 31 32 27 28 25
214 207 206 205 202 199 198 193 190 189 185 177 184 182 175 179 185 185 257 331 352 14 11 16 6 6 5 9 5 11 13 18 14 9 14 22 25 22 26 20 25 28
209 207 209 207 206 205 197 191 192 194 188 188 179 184 167 168 175 175 194 329 327 340 343 334 330 339 334 343 342 350 350 354 355 351 359 7 9 8 12 13 16 22
216 214 214 211 207 201 191 190 195 194 190 181 193 181 179 173 174 179 201 281 319 313 325 320 322 322 314 316 324 334 337 339 335 338 350 354 351 356 359 1 8 13
217 214 215 213 205 194 188 192 194 193 190 193 185 181 191 182 187 200 215 259 286 310 313 316 316 318 311 308 318 327 332 323 327 332 341 347 339 349 352 354 356 4
216 216 216 212 200 191 188 192 193 192 193 186 182 188 193 196 204 217 237 261 279 295 305 307 313 313 308 311 320 326 329 327 326 329 339 343 342 350 350 346 347 354
205 208 211 203 191 192 195 195 197 194 191 184 187 192 196 203 215 226 239 257 275 286 298 305 311 313 312 314 324 325 327 332 330 332 339 345 348 349 345 339 348 348
187 194 193 190 188 195 198 201 198 194 190 186 193 192 198 212 218 229 238 248 258 279 299 310 320 317 317 319 317 318 325 328 330 332 339 348 350 350 340 340 343 349
176 182 179 183 189 194 197 197 192 186 185 189 198 196 205 217 226 233 240 249 251 261 277 295 293 298 313 316 314 310 312 316 320 327 334 338 343 346 343 337 342 352
172 177 181 183 188 189 190 186 177 175 183 191 207 207 218 222 231 242 240 243 246 251 263 280 284 286 293 297 298 300 302 305 311 315 318 322 331 340 338 338 343 347
175 181 183 184 187 186 182 176 175 181 188 198 211 218 222 232 239 246 244 246 250 256 262 263 274 287 297 299 301 303 301 305 308 305 311 317 321 325 328 335 343 348
185 185 188 189 188 187 180 178 185 191 198 204 214 221 227 233 240 246 249 253 258 266 269 274 288 305 303 309 314 318 313 319 322 318 314 308 309 317 319 330 340 354
193 192 192 191 190 188 188 195 202 205 208 213 222 233 238 242 246 254 261 268 265 264 266 277 298 295 335 357 346 323 315 309 302 314 286 273 282 294 305 332 10 24
194 189 192 189 188 199 209 217 220 220 221 226 232 240 247 251 256 264 265 255 255 257 274 285 294 301 2 351 357 4 336 308 316 245 235 232 239 260 347 21 36 44
188 190 191 191 202 208 221 231 234 236 237 239 241 245 245 248 257 262 254 249 244 250 269 287 286 346 0 353 354 1 2 12 196 198 205 192 170 109 90 79 68 56
179 183 177 187 199 211 223 235 246 252 254 250 248 244 239 245 252 251 249 252 254 260 263 271 268 346 349 350 349 0 19 45 144 155 147 131 115 95 86 79 75 66
166 162 157 176 210 227 235 245 262 274 265 255 247 246 245 241 244 250 245 246 252 256 250 245 261 318 333 339 352 10 21 22 122 121 131 119 100 92 91 77 65 56
181 185 193 217 243 259 259 268 286 269 265 256 251 252 248 245 246 244 239 241 247 251 246 242 238 297 297 328 354 1 3 328 154 146 140 125 111 102 86 74 62 45
211 219 231 242 260 269 275 283 284 282 275 260 249 241 239 240 240 241 240 240 246 249 242 221 224 278 290 307 330 325 308 243 204 166 138 126 123 123 109 95 62 25
222 236 244 260 272 278 287 290 291 291 278 261 254 246 244 246 244 246 240 234 236 240 233 209 216 252 283 293 297 296 264 227 220 197 165 139 133 140 135 97 7 335
229 241 247 259 269 282 293 296 301 297 296 278 269 255 249 248 244 241 241 236 233 232 230 219 220 246 280 280 287 285 273 240 225 215 178 162 151 151 177 196 353 11
232 243 248 255 267 279 284 292 297 305 307 296 285 262 248 243 243 242 240 237 232 225 226 231 228 245 277 281 284 281 267 232 232 220 198 186 196 191 221 240 270 313
225 239 248 253 258 262 264 273 274 274 284 294 296 280 257 245 243 243 243 239 237 231 227 234 238 240 254 281 278 280 285 249 233 226 211 207 220 227 231 257 283 289